Epoch 2004 Dec. 21.0 TT = JDT 2453360.5 T 2004 Dec. 17.5867 TT Nakano q 2.424069 (2000.0) P Q n 0.1393167 Peri. 179.8479 +0.8282731 -0.5556857 a 3.685253 Node 214.2291 +0.5139526 +0.8045864 e 0.342225 Incl. 7.3490 +0.2231958 +0.2094138 P 7.07 From 150 observations 1990-1999, mean residual 0".8.
m1 = 9.3 + 5 logΔ + 20.0 log r